+ View the NASA Portal
+ Center for Near-Earth Object Studies
IMPORTANT:
The SSD Announcement email list is now available. Major changes are coming in the near future, including possible hostname and/or URL changes. To be notified of such changes, subscribe to this email list.
Please visit
this page
for more details.
Don't show this message again
JPL Small-Body Database Browser
Search:
[
help
]
359782 (2011 UC159)
Classification:
Main-belt Asteroid
SPK-ID:
2359782
[
Ephemeris
|
Orbit Diagram
|
Orbital Elements
|
Mission Design
|
Physical Parameters
|
Discovery Circumstances
|
Close-Approach Data
]
[ show orbit diagram ]
Orbital Elements at Epoch 2458600.5 (2019-Apr-27.0) TDB
Reference:
JPL 8
(heliocentric ecliptic J2000)
Element
Value
Uncertainty (1-sigma)
Units
e
.04273475792631514
6.0367e-08
a
2.774310995427818
4.8229e-08
au
q
2.655751486625896
1.5872e-07
au
i
5.324823546749955
7.435e-06
deg
node
141.7486775819685
7.5646e-05
deg
peri
295.4213621411458
0.00012826
deg
M
185.0443604320349
0.00010747
deg
t
p
2459420.769544334757
(2021-Jul-25.26954433)
0.00050911
TDB
period
1687.839481423508
4.62
4.4012e-05
1.205e-07
d
yr
n
.2132904248076833
5.5618e-09
deg/d
Q
2.89287050422974
5.029e-08
au
Orbit Determination Parameters
# obs. used (total)
134
data-arc span
5628 days (15.41 yr)
first obs. used
2002-11-16
last obs. used
2018-04-14
planetary ephem.
DE431
SB-pert. ephem.
SB431-N16
condition code
0
norm. resid. RMS
.52269
source
ORB
producer
Otto Matic
solution date
2019-Jul-14 14:25:28
Additional Information
Earth MOID
= 1.67654 au
Jupiter MOID
= 2.20838 au
T_jup
= 3.328
[ show covariance matrix ]
[
Ephemeris
|
Orbit Diagram
|
Orbital Elements
|
Mission Design
|
Physical Parameters
|
Discovery Circumstances
|
Close-Approach Data
]
Physical Parameter Table
Parameter
Symbol
Value
Units
Sigma
Reference
Notes
absolute magnitude
H
16.4
n/a
MPO437519
359782 (2011 UC159)
Discovered 2002-Nov-16 by NEAT at Palomar
Reference:
20130327/Numbers.arc
Last Updated:
2013-03-29
[ hide close-approach data ]
Close-Approach Data
...sorted by
Date/Time (TDB)
Date/Time (TDB)
Time Uncertainty
(days_HH:MM)
Body
Nominal Distance (au)
Minimum Distance (au)
Maximum Distance (au)
V-relative (km/s)
V-infinity (km/s)
JD (TDB)
Time Uncertainty (minutes)
Semi-major axis (km)
Semi-minor axis (km)
range-LOV angle (deg)
N-sigma
BP
Orbit Ref.
Reference
Modified
2104-Oct-21 17:18
00:07
David
0.0246371240856696
0.0246344335826951
0.0246398949168
4.21150385393335
4.21150370833521
2489824.220500175
6.8360926323382
2476.3162260731
60.2583438685523
-87.1756602541496
61039.6768537951
T
8
CATAB v2.0e-lin.ifort 2019-Jul-14 14:25:30
2019-Jul-14 14:25
[
Ephemeris
|
Orbit Diagram
|
Orbital Elements
|
Mission Design
|
Physical Parameters
|
Discovery Circumstances
|
Close-Approach Data
]
2019-Dec-10 00:32 UT
(server date/time)
Site Manager:
Ryan S. Park
Webmaster
:
Alan B. Chamberlin